TimeEDT,TemperatureF,Dew PointF,Humidity,Sea Level PressureIn,VisibilityMPH,Wind Direction,Wind SpeedMPH,Gust SpeedMPH,PrecipitationIn,Events,Conditions,WindDirDegrees,DateUTC
12:15 AM,56.1,55.4,97,29.89,3.0,Calm,Calm,-,N/A,,Mostly Cloudy,0,2012-10-06 04:15:00
12:35 AM,56.3,55.6,97,29.88,3.0,Calm,Calm,-,N/A,,Overcast,0,2012-10-06 04:35:00
12:55 AM,56.5,55.8,97,29.88,5.0,Calm,Calm,-,N/A,,Overcast,0,2012-10-06 04:55:00
1:15 AM,56.3,55.6,97,29.88,3.0,Calm,Calm,-,N/A,,Mostly Cloudy,0,2012-10-06 05:15:00
1:35 AM,56.3,55.6,97,29.88,3.0,Calm,Calm,-,N/A,,Scattered Clouds,0,2012-10-06 05:35:00
1:55 AM,55.9,55.4,98,29.87,3.0,Calm,Calm,-,N/A,,Mostly Cloudy,0,2012-10-06 05:55:00
2:15 AM,56.3,55.6,97,29.86,3.0,Calm,Calm,-,N/A,,Overcast,0,2012-10-06 06:15:00
2:35 AM,56.3,55.4,97,29.85,3.0,Calm,Calm,-,N/A,,Overcast,0,2012-10-06 06:35:00
3:35 AM,55.6,54.9,97,29.83,2.0,Calm,Calm,-,N/A,,Overcast,0,2012-10-06 07:35:00
3:55 AM,55.4,54.7,97,29.83,1.8,Calm,Calm,-,N/A,,Overcast,0,2012-10-06 07:55:00
4:15 AM,55.2,54.5,97,29.82,0.2,Calm,Calm,-,N/A,Fog,Fog,0,2012-10-06 08:15:00
4:35 AM,54.7,54.1,98,29.82,0.2,Calm,Calm,-,N/A,Fog,Fog,0,2012-10-06 08:35:00
4:55 AM,54.5,54.0,98,29.82,0.2,Calm,Calm,-,N/A,Fog,Fog,0,2012-10-06 08:55:00
5:15 AM,54.5,54.0,98,29.82,0.2,Calm,Calm,-,N/A,Fog,Fog,0,2012-10-06 09:15:00
5:35 AM,54.5,54.0,98,29.81,0.2,Calm,Calm,-,N/A,Fog,Fog,0,2012-10-06 09:35:00
5:55 AM,54.9,54.5,99,29.81,0.2,Calm,Calm,-,N/A,Fog,Fog,0,2012-10-06 09:55:00
6:55 AM,54.5,53.8,97,29.80,0.2,Calm,Calm,-,N/A,Fog,Fog,0,2012-10-06 10:55:00
7:15 AM,54.5,53.8,97,29.80,0.2,Calm,Calm,-,N/A,Fog,Fog,0,2012-10-06 11:15:00
7:35 AM,54.7,54.1,98,29.79,0.2,Calm,Calm,-,N/A,Fog,Fog,0,2012-10-06 11:35:00
7:55 AM,55.0,54.5,98,29.79,0.2,Calm,Calm,-,N/A,Fog,Fog,0,2012-10-06 11:55:00
8:15 AM,55.0,54.7,99,29.78,0.2,Calm,Calm,-,N/A,Fog,Fog,0,2012-10-06 12:15:00
8:35 AM,55.6,55.4,99,29.79,0.2,Calm,Calm,-,N/A,Fog,Fog,0,2012-10-06 12:35:00
8:55 AM,56.3,55.8,98,29.78,0.5,Calm,Calm,-,N/A,Fog,Fog,0,2012-10-06 12:55:00
9:15 AM,56.7,56.3,99,29.78,1.0,Calm,Calm,-,N/A,,Overcast,0,2012-10-06 13:15:00
9:35 AM,57.4,57.2,99,29.77,2.5,Calm,Calm,-,N/A,,Overcast,0,2012-10-06 13:35:00
9:55 AM,57.7,57.4,99,29.76,5.0,Calm,Calm,-,N/A,,Scattered Clouds,0,2012-10-06 13:55:00
10:15 AM,58.8,58.5,99,29.76,7.0,Calm,Calm,-,N/A,,Scattered Clouds,0,2012-10-06 14:15:00
10:35 AM,60.1,59.7,99,29.75,10.0,East,3.5,-,N/A,,Clear,100,2012-10-06 14:35:00
10:55 AM,60.8,60.3,98,29.74,10.0,ENE,4.6,-,N/A,,Scattered Clouds,70,2012-10-06 14:55:00
11:15 AM,62.1,61.5,98,29.73,10.0,ENE,4.6,-,N/A,,Scattered Clouds,70,2012-10-06 15:15:00
11:35 AM,63.5,62.4,96,29.72,10.0,ENE,4.6,-,N/A,,Clear,70,2012-10-06 15:35:00
11:55 AM,64.8,61.7,90,29.71,10.0,East,3.5,-,N/A,,Mostly Cloudy,80,2012-10-06 15:55:00
12:15 PM,67.1,60.3,79,29.70,10.0,ESE,3.5,-,N/A,,Overcast,120,2012-10-06 16:15:00
12:35 PM,69.1,59.9,72,29.69,10.0,Calm,Calm,-,N/A,,Mostly Cloudy,0,2012-10-06 16:35:00
12:55 PM,68.9,59.9,73,29.68,10.0,Calm,Calm,-,N/A,,Overcast,0,2012-10-06 16:55:00
1:15 PM,68.2,60.4,76,29.67,10.0,Calm,Calm,-,N/A,,Overcast,0,2012-10-06 17:15:00
1:35 PM,68.2,61.0,78,29.67,10.0,Calm,Calm,-,N/A,Rain,Light Rain,0,2012-10-06 17:35:00
1:55 PM,67.3,62.1,83,29.66,10.0,Calm,Calm,-,N/A,,Overcast,0,2012-10-06 17:55:00
2:15 PM,68.4,59.2,72,29.66,10.0,West,4.6,-,N/A,,Overcast,260,2012-10-06 18:15:00
2:35 PM,67.1,60.8,80,29.66,10.0,West,4.6,-,N/A,,Overcast,270,2012-10-06 18:35:00
2:55 PM,66.0,59.9,81,29.68,7.0,West,8.1,-,N/A,Rain,Rain,280,2012-10-06 18:55:00
3:15 PM,63.5,60.3,89,29.68,2.5,West,6.9,-,0.09,Rain,Heavy Rain,270,2012-10-06 19:15:00
3:35 PM,61.3,56.5,84,29.71,7.0,WNW,13.8,31.1,0.10,Rain,Heavy Rain,290,2012-10-06 19:35:00
4:15 PM,57.2,52.0,83,29.74,10.0,West,9.2,16.1,N/A,Rain,Light Rain,270,2012-10-06 20:15:00
4:35 PM,56.3,50.7,82,29.75,10.0,West,11.5,-,N/A,,Overcast,270,2012-10-06 20:35:00
4:55 PM,55.9,49.8,80,29.75,10.0,WNW,10.4,16.1,N/A,,Overcast,290,2012-10-06 20:55:00
5:15 PM,55.9,48.6,76,29.76,10.0,West,11.5,-,N/A,,Overcast,270,2012-10-06 21:15:00
5:35 PM,55.4,48.6,78,29.76,10.0,West,8.1,-,N/A,,Overcast,270,2012-10-06 21:35:00
6:15 PM,54.3,48.6,81,29.78,10.0,WNW,6.9,-,N/A,,Mostly Cloudy,290,2012-10-06 22:15:00
6:35 PM,53.6,48.2,82,29.79,10.0,West,8.1,-,N/A,,Scattered Clouds,280,2012-10-06 22:35:00
7:15 PM,53.2,47.5,81,29.81,10.0,West,8.1,-,N/A,,Clear,280,2012-10-06 23:15:00
7:35 PM,52.5,47.5,83,29.81,10.0,West,6.9,-,N/A,,Clear,280,2012-10-06 23:35:00
7:55 PM,52.0,46.6,82,29.82,10.0,WNW,5.8,-,N/A,,Clear,290,2012-10-06 23:55:00
8:15 PM,52.0,45.5,79,29.82,10.0,WNW,8.1,20.7,N/A,,Clear,300,2012-10-07 00:15:00
8:35 PM,52.0,44.8,76,29.83,10.0,West,8.1,-,N/A,,Clear,280,2012-10-07 00:35:00
8:55 PM,52.7,43.3,70,29.84,10.0,West,6.9,-,N/A,,Clear,270,2012-10-07 00:55:00
9:15 PM,52.5,42.1,68,29.85,10.0,West,6.9,16.1,N/A,,Clear,280,2012-10-07 01:15:00
9:35 PM,51.3,41.0,68,29.86,10.0,WNW,6.9,-,N/A,,Clear,290,2012-10-07 01:35:00
9:55 PM,51.4,39.6,64,29.86,10.0,West,8.1,-,N/A,,Clear,280,2012-10-07 01:55:00
10:15 PM,50.9,39.2,64,29.87,10.0,West,6.9,-,N/A,,Clear,280,2012-10-07 02:15:00
10:35 PM,50.7,38.5,63,29.88,10.0,West,5.8,-,N/A,,Clear,280,2012-10-07 02:35:00
10:55 PM,50.2,38.1,63,29.89,10.0,West,6.9,-,N/A,,Clear,280,2012-10-07 02:55:00
11:15 PM,50.0,37.4,62,29.89,10.0,West,4.6,-,N/A,,Clear,280,2012-10-07 03:15:00
11:35 PM,49.8,37.4,62,29.90,10.0,West,5.8,-,N/A,,Clear,270,2012-10-07 03:35:00
11:55 PM,49.6,37.0,62,29.90,10.0,WNW,3.5,-,N/A,,Clear,290,2012-10-07 03:55:00